AAL109 EGLL-KBOS

Flight info

Callsign AAL109
Flight time N/A
Altitude 36000
Route CPT5J CPT DCT DIDZA L9 OKSAW DCT BIBPE DCT BUCGO DCT FELCA DCT NICXI DCT BAKUR DCT NEBIN/M082F380 NATB BUDAR/N0463F380 N436B ALLEX DCT AJJAY OOSHN5
Aircraft B77L/H-SDE1E2E3FGHIJ2J3J4J5M1RWXY/LB1D1

Departure

Time 2026-04-30 11:39
Airport London Heathrow Airport (EGLL)

Arrival

Time N/A
Airport Boston Logan International Airport (KBOS)
Time Latitude Longitude Altitude Speed Heading
2026-04-30 10:39 51.47125 -0.47734 94 ft 0 kts 89°
2026-04-30 11:25 51.47128 -0.47784 93 ft 2 kts 103°
2026-04-30 11:26 51.47142 -0.47832 94 ft 2 kts 130°
2026-04-30 11:26 51.47153 -0.47851 91 ft 2 kts 147°
2026-04-30 11:26 51.47168 -0.47863 92 ft 2 kts 162°
2026-04-30 11:27 51.47184 -0.47869 95 ft 2 kts 173°
2026-04-30 11:27 51.47195 -0.47871 93 ft 1 kts 179°
2026-04-30 11:27 51.47196 -0.47871 93 ft 0 kts 180°
2026-04-30 11:29 51.47183 -0.47871 95 ft 7 kts 180°
2026-04-30 11:29 51.47037 -0.47869 93 ft 11 kts 180°
2026-04-30 11:30 51.46875 -0.47870 90 ft 11 kts 180°
2026-04-30 11:30 51.46797 -0.47871 89 ft 12 kts 180°
2026-04-30 11:30 51.46746 -0.47903 92 ft 8 kts 237°
2026-04-30 11:31 51.46744 -0.47993 90 ft 8 kts 270°
2026-04-30 11:31 51.46743 -0.48084 89 ft 4 kts 269°
2026-04-30 11:31 51.46743 -0.48085 89 ft 0 kts 269°
2026-04-30 11:32 51.46743 -0.48135 90 ft 13 kts 270°
2026-04-30 11:32 51.46742 -0.48308 93 ft 16 kts 270°
2026-04-30 11:32 51.46741 -0.48490 91 ft 17 kts 268°
2026-04-30 11:33 51.46706 -0.48737 95 ft 9 kts 201°
2026-04-30 11:33 51.46642 -0.48751 91 ft 8 kts 189°
2026-04-30 11:33 51.46607 -0.48765 93 ft 0 kts 195°
2026-04-30 11:35 51.46593 -0.48771 91 ft 6 kts 195°
2026-04-30 11:35 51.46550 -0.48782 92 ft 7 kts 179°
2026-04-30 11:35 51.46506 -0.48759 94 ft 7 kts 149°
2026-04-30 11:35 51.46479 -0.48704 94 ft 7 kts 110°
2026-04-30 11:36 51.46475 -0.48642 94 ft 0 kts 89°
2026-04-30 11:38 51.46475 -0.48631 90 ft 8 kts 88°
2026-04-30 11:39 51.46478 -0.48322 92 ft 50 kts 90°
2026-04-30 11:39 51.46480 -0.47353 87 ft 121 kts 89°
2026-04-30 11:39 51.46481 -0.45726 255 ft 157 kts 91°
2026-04-30 11:39 51.46503 -0.43950 960 ft 157 kts 88°
2026-04-30 11:40 51.46569 -0.42309 1961 ft 147 kts 88°
2026-04-30 11:40 51.46402 -0.40582 2294 ft 174 kts 116°
2026-04-30 11:40 51.45428 -0.39207 2634 ft 207 kts 152°
2026-04-30 11:40 51.43859 -0.38904 2894 ft 252 kts 185°
2026-04-30 11:41 51.42216 -0.40092 3806 ft 269 kts 213°
2026-04-30 11:41 51.40882 -0.42184 4753 ft 269 kts 221°
2026-04-30 11:41 51.39760 -0.44571 5532 ft 279 kts 241°
2026-04-30 11:41 51.39306 -0.47651 6326 ft 288 kts 264°
2026-04-30 11:42 51.39319 -0.50910 7104 ft 296 kts 269°
2026-04-30 11:42 51.39419 -0.54238 7929 ft 300 kts 270°
2026-04-30 11:42 51.39532 -0.57593 8823 ft 304 kts 270°
2026-04-30 11:42 51.39650 -0.60993 9677 ft 307 kts 270°
2026-04-30 11:43 51.39774 -0.64435 10478 ft 312 kts 270°
2026-04-30 11:43 51.39896 -0.67962 11083 ft 324 kts 270°
2026-04-30 11:43 51.40019 -0.71716 11307 ft 351 kts 271°
2026-04-30 11:43 51.40147 -0.75725 11541 ft 378 kts 271°
2026-04-30 11:44 51.40281 -0.80017 12244 ft 390 kts 271°
2026-04-30 11:44 51.40415 -0.84391 13240 ft 394 kts 270°
2026-04-30 11:44 51.40550 -0.88811 14225 ft 399 kts 271°
2026-04-30 11:44 51.40686 -0.93273 14984 ft 402 kts 271°
2026-04-30 11:45 51.41045 -0.97751 15204 ft 410 kts 280°
2026-04-30 11:45 51.41899 -1.02137 15192 ft 414 kts 291°
2026-04-30 11:45 51.43138 -1.06224 15215 ft 413 kts 299°
2026-04-30 11:45 51.44656 -1.10146 15221 ft 413 kts 302°
2026-04-30 11:46 51.46182 -1.14057 15215 ft 414 kts 301°
2026-04-30 11:46 51.47688 -1.17991 15214 ft 414 kts 301°
2026-04-30 11:46 51.49265 -1.21860 15204 ft 414 kts 307°
2026-04-30 11:46 51.51155 -1.25259 15203 ft 413 kts 317°
2026-04-30 11:47 51.53307 -1.28313 15213 ft 412 kts 319°
2026-04-30 11:47 51.55445 -1.31402 15206 ft 413 kts 318°
2026-04-30 11:47 51.57548 -1.34551 15210 ft 414 kts 317°
2026-04-30 11:47 51.59567 -1.37864 15360 ft 417 kts 310°
2026-04-30 11:48 51.61343 -1.41580 16173 ft 421 kts 304°
2026-04-30 11:48 51.62903 -1.45593 17078 ft 424 kts 297°
2026-04-30 11:48 51.64292 -1.49821 17901 ft 429 kts 295°
2026-04-30 11:48 51.65666 -1.54133 18670 ft 436 kts 295°
2026-04-30 11:49 51.67077 -1.58491 19366 ft 441 kts 296°
2026-04-30 11:49 51.68493 -1.62838 20086 ft 445 kts 294°
2026-04-30 11:49 51.69718 -1.67513 20781 ft 449 kts 287°
2026-04-30 11:49 51.70583 -1.72309 21469 ft 452 kts 281°
2026-04-30 11:50 51.71126 -1.77303 22146 ft 454 kts 273°
2026-04-30 11:50 51.71453 -1.82399 22810 ft 459 kts 272°
2026-04-30 11:50 51.71779 -1.87559 23479 ft 465 kts 272°
2026-04-30 11:50 51.72129 -1.92769 24095 ft 470 kts 273°
2026-04-30 11:51 51.72499 -1.98040 24686 ft 474 kts 273°
2026-04-30 11:51 51.72872 -2.03278 25286 ft 477 kts 273°
2026-04-30 11:51 51.73251 -2.08615 25875 ft 481 kts 273°
2026-04-30 11:51 51.73630 -2.14004 26436 ft 485 kts 273°
2026-04-30 11:52 51.74007 -2.19435 27006 ft 489 kts 273°
2026-04-30 11:52 51.74384 -2.24920 27551 ft 493 kts 272°
2026-04-30 11:52 51.74762 -2.30462 28130 ft 496 kts 273°
2026-04-30 11:52 51.75136 -2.35965 28679 ft 499 kts 272°
2026-04-30 11:53 51.75513 -2.41566 29217 ft 503 kts 273°
2026-04-30 11:53 51.75889 -2.47197 29769 ft 506 kts 272°
2026-04-30 11:53 51.76264 -2.52855 30349 ft 508 kts 273°
2026-04-30 11:53 51.76640 -2.58543 30786 ft 510 kts 273°
2026-04-30 11:54 51.77013 -2.64240 31350 ft 509 kts 273°
2026-04-30 11:54 51.77380 -2.69893 32048 ft 504 kts 272°
2026-04-30 11:54 51.77741 -2.75506 32715 ft 501 kts 272°
2026-04-30 11:54 51.78098 -2.81103 33256 ft 500 kts 273°
2026-04-30 11:55 51.78448 -2.86626 33747 ft 500 kts 273°
2026-04-30 11:55 51.78798 -2.92203 34287 ft 498 kts 273°
2026-04-30 11:55 51.79145 -2.97754 34777 ft 495 kts 273°
2026-04-30 11:55 51.79488 -3.03300 35212 ft 494 kts 273°
2026-04-30 11:56 51.79827 -3.08811 35631 ft 492 kts 273°
2026-04-30 11:56 51.80163 -3.14308 36056 ft 490 kts 273°
2026-04-30 11:56 51.80494 -3.19791 36311 ft 491 kts 273°
2026-04-30 11:56 51.80820 -3.25248 36244 ft 495 kts 273°
2026-04-30 11:57 51.81477 -3.36303 36203 ft 491 kts 272°
2026-04-30 11:57 51.82118 -3.47234 36159 ft 486 kts 272°
2026-04-30 11:58 51.82959 -3.58058 36165 ft 486 kts 278°
2026-04-30 11:58 51.84363 -3.68755 36154 ft 486 kts 279°
2026-04-30 11:59 51.85832 -3.79440 36142 ft 487 kts 282°
2026-04-30 11:59 51.87842 -3.89862 36140 ft 488 kts 286°
2026-04-30 12:00 51.89998 -4.00305 36136 ft 489 kts 285°
2026-04-30 12:00 51.92124 -4.10782 36133 ft 489 kts 285°
2026-04-30 12:01 51.94207 -4.21297 36120 ft 490 kts 285°
2026-04-30 12:01 51.96255 -4.31759 36121 ft 490 kts 284°
2026-04-30 12:02 51.98303 -4.42285 36119 ft 490 kts 284°
2026-04-30 12:02 52.00012 -4.51109 36114 ft 489 kts 284°
2026-04-30 12:03 52.03045 -4.66858 36108 ft 489 kts 284°
2026-04-30 12:04 52.05062 -4.77407 36110 ft 489 kts 284°
2026-04-30 12:04 52.07070 -4.87964 36113 ft 488 kts 284°
2026-04-30 12:05 52.09066 -4.98521 36110 ft 488 kts 283°
2026-04-30 12:05 52.11050 -5.09075 36112 ft 488 kts 283°
2026-04-30 12:06 52.13014 -5.19579 36106 ft 488 kts 283°
2026-04-30 12:06 52.14982 -5.30164 36108 ft 488 kts 283°
2026-04-30 12:07 52.16945 -5.40784 36111 ft 489 kts 283°
2026-04-30 12:07 52.18896 -5.51398 36113 ft 489 kts 283°
2026-04-30 12:08 52.20829 -5.61973 36110 ft 489 kts 283°
2026-04-30 12:08 52.22765 -5.72631 36112 ft 489 kts 283°
2026-04-30 12:09 52.24693 -5.83303 36120 ft 490 kts 283°
2026-04-30 12:09 52.26603 -5.93942 36120 ft 490 kts 282°
2026-04-30 12:10 52.28513 -6.04637 36122 ft 491 kts 282°
2026-04-30 12:10 52.30416 -6.15361 36127 ft 491 kts 282°
2026-04-30 12:11 52.32309 -6.26094 36126 ft 491 kts 282°
2026-04-30 12:11 52.34184 -6.36787 36134 ft 492 kts 282°
2026-04-30 12:12 52.36058 -6.47540 36130 ft 492 kts 282°
2026-04-30 12:12 52.37928 -6.58332 36124 ft 492 kts 282°
2026-04-30 12:13 52.39787 -6.69127 36128 ft 492 kts 282°
2026-04-30 12:13 52.41636 -6.79933 36130 ft 492 kts 282°
2026-04-30 12:14 52.43462 -6.90674 36124 ft 492 kts 282°
2026-04-30 12:14 52.45292 -7.01498 36135 ft 493 kts 281°
2026-04-30 12:15 52.47112 -7.12330 36129 ft 493 kts 281°
2026-04-30 12:15 52.48926 -7.23198 36124 ft 493 kts 281°
2026-04-30 12:16 52.50727 -7.34063 36119 ft 493 kts 281°
2026-04-30 12:16 52.52519 -7.44933 36110 ft 492 kts 281°
2026-04-30 12:17 52.55173 -7.61162 36110 ft 492 kts 281°
2026-04-30 12:17 52.56937 -7.72037 36101 ft 492 kts 281°
2026-04-30 12:18 52.58679 -7.82846 36101 ft 491 kts 281°
2026-04-30 12:18 52.60420 -7.93719 36109 ft 491 kts 281°
2026-04-30 12:19 52.62155 -8.04629 36110 ft 492 kts 281°
2026-04-30 12:19 52.63879 -8.15542 36108 ft 492 kts 280°
2026-04-30 12:20 52.65582 -8.26389 36115 ft 493 kts 280°
2026-04-30 12:20 52.67289 -8.37334 36091 ft 493 kts 280°
2026-04-30 12:21 52.68987 -8.48291 36099 ft 493 kts 280°
2026-04-30 12:21 52.70678 -8.59285 36111 ft 494 kts 280°
2026-04-30 12:22 52.72349 -8.70224 36131 ft 495 kts 280°
2026-04-30 12:22 52.74032 -8.81314 36093 ft 497 kts 280°
2026-04-30 12:23 52.75694 -8.92335 36097 ft 496 kts 280°
2026-04-30 12:23 52.77352 -9.03396 36105 ft 495 kts 279°
2026-04-30 12:24 52.78980 -9.14350 36099 ft 494 kts 279°
2026-04-30 12:24 52.80606 -9.25370 36100 ft 493 kts 279°
2026-04-30 12:25 52.82228 -9.36439 36095 ft 495 kts 279°
2026-04-30 12:25 52.83840 -9.47515 36085 ft 496 kts 279°
2026-04-30 12:26 52.85437 -9.58571 36082 ft 496 kts 279°
2026-04-30 12:26 52.87033 -9.69696 36101 ft 497 kts 279°
2026-04-30 12:27 52.88623 -9.80860 36078 ft 499 kts 279°
2026-04-30 12:27 52.90202 -9.92029 36078 ft 499 kts 279°
2026-04-30 12:28 52.91778 -10.03254 36073 ft 499 kts 279°
2026-04-30 12:28 52.93339 -10.14457 36082 ft 498 kts 279°
2026-04-30 12:29 52.94878 -10.25582 36082 ft 497 kts 279°
2026-04-30 12:29 52.96413 -10.36776 36088 ft 498 kts 279°
2026-04-30 12:30 52.97932 -10.47932 36074 ft 499 kts 279°
2026-04-30 12:30 52.99452 -10.59175 36119 ft 500 kts 278°
2026-04-30 12:31 53.00211 -10.64830 36404 ft 501 kts 279°
2026-04-30 12:31 53.00966 -10.70469 36744 ft 501 kts 279°
2026-04-30 12:31 53.01719 -10.76106 36958 ft 498 kts 279°
2026-04-30 12:31 53.02466 -10.81726 37021 ft 497 kts 279°
2026-04-30 12:32 53.03942 -10.92896 37080 ft 493 kts 279°
2026-04-30 12:32 53.05397 -11.04010 37470 ft 495 kts 279°
2026-04-30 12:33 53.06121 -11.09574 37979 ft 491 kts 279°
2026-04-30 12:33 53.06842 -11.15124 38075 ft 491 kts 279°
2026-04-30 12:33 53.08270 -11.26184 38060 ft 486 kts 279°
2026-04-30 12:34 53.09668 -11.37114 38088 ft 486 kts 279°
2026-04-30 12:34 53.11069 -11.48162 38094 ft 488 kts 279°
2026-04-30 12:35 53.12466 -11.59250 38093 ft 490 kts 279°
2026-04-30 12:35 53.13860 -11.70407 38088 ft 493 kts 279°
2026-04-30 12:36 53.15248 -11.81611 38074 ft 493 kts 279°
2026-04-30 12:36 53.16617 -11.92740 38075 ft 492 kts 279°
2026-04-30 12:37 53.17977 -12.03889 38088 ft 489 kts 279°
2026-04-30 12:37 53.19322 -12.15010 38079 ft 488 kts 278°
2026-04-30 12:38 53.20651 -12.26096 38086 ft 486 kts 278°
2026-04-30 12:38 53.21960 -12.37108 38084 ft 486 kts 278°
2026-04-30 12:39 53.23265 -12.48179 38083 ft 485 kts 278°
2026-04-30 12:39 53.24559 -12.59252 38098 ft 486 kts 278°
2026-04-30 12:40 53.25845 -12.70347 38089 ft 487 kts 278°
2026-04-30 12:40 53.27123 -12.81469 38096 ft 487 kts 278°
2026-04-30 12:41 53.28384 -12.92538 38100 ft 488 kts 278°
2026-04-30 12:41 53.29645 -13.03701 38090 ft 489 kts 278°
2026-04-30 12:42 53.30896 -13.14880 38093 ft 489 kts 278°
2026-04-30 12:42 53.32139 -13.26083 38087 ft 489 kts 278°
2026-04-30 12:43 53.33372 -13.37300 38099 ft 489 kts 278°
2026-04-30 12:43 53.34593 -13.48510 38098 ft 489 kts 278°
2026-04-30 12:44 53.35794 -13.59645 38094 ft 489 kts 278°
2026-04-30 12:44 53.36993 -13.70858 38102 ft 488 kts 278°
2026-04-30 12:45 53.38179 -13.82052 38110 ft 487 kts 278°
2026-04-30 12:45 53.39353 -13.93236 38092 ft 487 kts 278°
2026-04-30 12:46 53.40514 -14.04411 38094 ft 486 kts 278°
2026-04-30 12:46 53.41657 -14.15512 38112 ft 486 kts 278°
2026-04-30 12:47 53.42797 -14.26688 38110 ft 486 kts 278°
2026-04-30 12:47 53.43927 -14.37875 38100 ft 486 kts 278°
2026-04-30 12:48 53.45044 -14.49045 38105 ft 486 kts 277°
2026-04-30 12:48 53.46150 -14.60223 38110 ft 486 kts 277°
2026-04-30 12:49 53.47240 -14.71338 38121 ft 485 kts 277°
2026-04-30 12:49 53.48325 -14.82521 38114 ft 485 kts 277°
2026-04-30 12:50 53.49401 -14.93698 38118 ft 485 kts 277°
2026-04-30 12:50 53.50191 -15.04920 38121 ft 482 kts 271°
2026-04-30 12:51 53.50373 -15.14283 38124 ft 482 kts 269°
2026-04-30 12:51 53.50560 -15.27362 38127 ft 481 kts 270°
2026-04-30 12:52 53.50709 -15.36786 38128 ft 481 kts 270°
2026-04-30 12:52 53.50896 -15.47963 38132 ft 481 kts 270°
2026-04-30 12:53 53.51083 -15.59222 38134 ft 481 kts 270°
2026-04-30 12:53 53.51260 -15.70465 38142 ft 481 kts 270°
2026-04-30 12:54 53.51423 -15.81647 38142 ft 480 kts 270°
2026-04-30 12:54 53.51575 -15.92869 38145 ft 480 kts 270°
2026-04-30 12:55 53.51716 -16.04086 38148 ft 479 kts 270°
2026-04-30 12:55 53.51848 -16.15290 38150 ft 479 kts 270°
2026-04-30 12:56 53.51969 -16.26494 38152 ft 479 kts 270°
2026-04-30 12:56 53.52079 -16.37612 38155 ft 478 kts 270°
2026-04-30 12:57 53.52178 -16.48806 38152 ft 478 kts 270°
2026-04-30 12:57 53.52267 -16.60011 38157 ft 478 kts 270°
2026-04-30 12:58 53.52346 -16.71119 38162 ft 478 kts 270°
2026-04-30 12:58 53.52414 -16.82290 38164 ft 478 kts 270°
2026-04-30 12:59 53.52472 -16.93485 38168 ft 478 kts 270°
2026-04-30 12:59 53.52519 -17.04669 38169 ft 478 kts 270°
2026-04-30 13:00 53.52556 -17.15780 38170 ft 478 kts 270°
2026-04-30 13:00 53.52583 -17.26958 38172 ft 478 kts 269°
2026-04-30 13:01 53.52599 -17.38121 38168 ft 477 kts 269°
2026-04-30 13:01 53.52605 -17.49312 38171 ft 477 kts 269°
2026-04-30 13:02 53.52600 -17.60470 38181 ft 477 kts 269°
2026-04-30 13:02 53.52585 -17.71539 38178 ft 476 kts 269°
2026-04-30 13:03 53.52560 -17.82670 38183 ft 475 kts 269°
2026-04-30 13:03 53.52525 -17.93780 38184 ft 474 kts 269°
2026-04-30 13:04 53.52479 -18.04863 38180 ft 472 kts 269°
2026-04-30 13:04 53.52424 -18.15899 38189 ft 471 kts 269°
2026-04-30 13:05 53.52359 -18.26825 38201 ft 470 kts 269°
2026-04-30 13:06 53.52242 -18.43293 38193 ft 468 kts 269°
2026-04-30 13:06 53.52152 -18.54224 38192 ft 467 kts 269°
2026-04-30 13:07 53.52053 -18.65064 38196 ft 466 kts 269°
2026-04-30 13:07 53.51943 -18.75950 38195 ft 465 kts 269°
2026-04-30 13:08 53.51825 -18.86800 38200 ft 464 kts 269°
2026-04-30 13:08 53.51697 -18.97566 38202 ft 463 kts 269°
2026-04-30 13:09 53.51559 -19.08386 38203 ft 462 kts 269°
2026-04-30 13:09 53.51411 -19.19191 38204 ft 462 kts 269°
2026-04-30 13:10 53.51254 -19.29990 38203 ft 462 kts 269°
2026-04-30 13:10 53.51088 -19.40733 38209 ft 462 kts 268°
2026-04-30 13:11 53.50920 -19.51534 38211 ft 462 kts 269°
2026-04-30 13:11 53.50742 -19.62315 38216 ft 462 kts 269°
2026-04-30 13:12 53.50544 -19.73033 38216 ft 462 kts 269°
2026-04-30 13:12 53.50334 -19.83827 38215 ft 461 kts 269°
2026-04-30 13:13 53.50000 -19.99991 38216 ft 461 kts 267°
2026-04-30 13:14 53.49142 -20.16038 38220 ft 461 kts 265°
2026-04-30 13:14 53.48168 -20.32093 38221 ft 460 kts 265°
2026-04-30 13:15 53.47201 -20.48131 38225 ft 460 kts 265°
2026-04-30 13:16 53.46551 -20.58821 38231 ft 460 kts 265°
2026-04-30 13:16 53.45895 -20.69435 38233 ft 459 kts 265°
2026-04-30 13:17 53.44888 -20.85438 38237 ft 459 kts 265°
2026-04-30 13:18 53.43863 -21.01376 38245 ft 460 kts 265°
2026-04-30 13:18 53.42810 -21.17398 38247 ft 461 kts 265°
2026-04-30 13:19 53.42095 -21.28094 38249 ft 462 kts 265°
2026-04-30 13:19 53.41370 -21.38806 38253 ft 462 kts 265°
2026-04-30 13:20 53.40635 -21.49517 38259 ft 462 kts 265°
2026-04-30 13:20 53.39894 -21.60154 38257 ft 462 kts 265°
2026-04-30 13:21 53.39138 -21.70864 38259 ft 462 kts 265°
2026-04-30 13:22 53.37989 -21.86900 38268 ft 462 kts 265°
2026-04-30 13:22 53.36820 -22.02910 38269 ft 462 kts 265°
2026-04-30 13:23 53.35634 -22.18866 38277 ft 462 kts 265°
2026-04-30 13:24 53.34010 -22.40233 38286 ft 463 kts 265°
2026-04-30 13:25 53.32343 -22.61624 38288 ft 464 kts 265°
2026-04-30 13:26 53.30204 -22.88376 38293 ft 466 kts 265°
2026-04-30 13:28 53.27999 -23.15180 38300 ft 467 kts 264°
2026-04-30 13:28 53.26642 -23.31305 38302 ft 467 kts 264°
2026-04-30 13:29 53.24806 -23.52722 38302 ft 466 kts 264°
2026-04-30 13:31 53.22455 -23.79467 38302 ft 465 kts 264°
2026-04-30 13:32 53.20078 -24.06061 38316 ft 464 kts 264°
2026-04-30 13:33 53.18111 -24.27341 38326 ft 464 kts 264°
2026-04-30 13:34 53.16612 -24.43290 38327 ft 464 kts 264°
2026-04-30 13:35 53.14584 -24.64512 38331 ft 465 kts 264°
2026-04-30 13:36 53.12508 -24.85821 38337 ft 466 kts 264°
2026-04-30 13:36 53.10929 -25.01753 38346 ft 467 kts 263°
2026-04-30 13:37 53.09319 -25.17775 38343 ft 468 kts 263°
2026-04-30 13:38 53.07867 -25.32033 38351 ft 469 kts 263°
2026-04-30 13:39 53.05648 -25.53490 38351 ft 471 kts 263°
2026-04-30 13:40 53.03961 -25.69545 38351 ft 472 kts 263°
2026-04-30 13:40 53.02813 -25.80340 38353 ft 473 kts 263°
2026-04-30 13:41 53.01665 -25.91046 38359 ft 474 kts 263°
2026-04-30 13:41 53.00498 -26.01832 38361 ft 474 kts 263°
2026-04-30 13:42 52.99318 -26.12642 38358 ft 475 kts 263°
2026-04-30 13:42 52.97538 -26.28763 38363 ft 475 kts 263°
2026-04-30 13:43 52.96334 -26.39561 38362 ft 476 kts 263°
2026-04-30 13:43 52.95118 -26.50360 38367 ft 476 kts 263°
2026-04-30 13:44 52.93893 -26.61154 38366 ft 476 kts 263°
2026-04-30 13:44 52.92658 -26.71939 38375 ft 476 kts 263°
2026-04-30 13:45 52.90792 -26.88065 38371 ft 477 kts 263°
2026-04-30 13:46 52.89532 -26.98846 38374 ft 477 kts 263°
2026-04-30 13:46 52.88259 -27.09644 38373 ft 477 kts 263°
2026-04-30 13:47 52.86986 -27.20357 38384 ft 477 kts 262°
2026-04-30 13:47 52.85694 -27.31134 38388 ft 477 kts 262°
2026-04-30 13:48 52.84389 -27.41935 38384 ft 478 kts 262°
2026-04-30 13:48 52.83076 -27.52719 38386 ft 478 kts 262°
2026-04-30 13:49 52.81762 -27.63420 38386 ft 478 kts 262°
2026-04-30 13:49 52.80429 -27.74194 38384 ft 478 kts 262°
2026-04-30 13:50 52.79087 -27.84949 38390 ft 478 kts 262°
2026-04-30 13:50 52.77059 -28.01050 38390 ft 478 kts 262°
2026-04-30 13:51 52.75698 -28.11756 38388 ft 478 kts 262°
2026-04-30 13:51 52.74317 -28.22524 38397 ft 479 kts 262°
2026-04-30 13:52 52.72928 -28.33278 38391 ft 479 kts 262°
2026-04-30 13:52 52.71529 -28.44029 38397 ft 479 kts 261°
2026-04-30 13:53 52.70121 -28.54770 38399 ft 479 kts 261°
2026-04-30 13:53 52.68707 -28.65465 38396 ft 480 kts 261°
2026-04-30 13:54 52.67276 -28.76220 38401 ft 480 kts 261°
2026-04-30 13:54 52.65835 -28.86961 38400 ft 480 kts 261°
2026-04-30 13:55 52.64381 -28.97722 38402 ft 481 kts 261°
2026-04-30 13:55 52.62918 -29.08471 38405 ft 481 kts 261°
2026-04-30 13:56 52.61454 -29.19141 38404 ft 481 kts 261°
2026-04-30 13:56 52.59971 -29.29881 38408 ft 481 kts 261°
2026-04-30 13:57 52.58477 -29.40618 38408 ft 481 kts 261°
2026-04-30 13:57 52.56971 -29.51358 38409 ft 482 kts 260°
2026-04-30 13:58 52.54692 -29.67464 38413 ft 482 kts 260°
2026-04-30 13:59 52.53167 -29.78132 38413 ft 482 kts 260°
2026-04-30 13:59 52.51622 -29.88858 38416 ft 482 kts 260°
2026-04-30 14:00 52.50110 -29.99586 38423 ft 481 kts 262°
2026-04-30 14:00 52.49044 -30.15894 38409 ft 479 kts 269°
2026-04-30 14:01 52.48475 -30.26785 38415 ft 479 kts 268°
2026-04-30 14:01 52.47864 -30.37625 38417 ft 480 kts 268°
2026-04-30 14:02 52.47216 -30.48546 38419 ft 480 kts 268°
2026-04-30 14:02 52.46552 -30.59448 38418 ft 480 kts 267°
2026-04-30 14:03 52.45882 -30.70295 38420 ft 480 kts 267°
2026-04-30 14:03 52.45199 -30.81207 38422 ft 481 kts 267°
2026-04-30 14:04 52.44506 -30.92121 38419 ft 481 kts 267°
2026-04-30 14:04 52.43802 -31.03046 38421 ft 481 kts 267°
2026-04-30 14:05 52.43094 -31.13885 38426 ft 481 kts 267°
2026-04-30 14:05 52.42369 -31.24818 38422 ft 482 kts 266°
2026-04-30 14:06 52.41264 -31.41197 38425 ft 482 kts 266°
2026-04-30 14:07 52.40141 -31.57501 38427 ft 482 kts 266°
2026-04-30 14:08 52.38990 -31.73867 38426 ft 482 kts 266°
2026-04-30 14:08 52.37817 -31.90226 38429 ft 482 kts 266°
2026-04-30 14:09 52.37023 -32.01116 38432 ft 482 kts 266°
2026-04-30 14:10 52.35816 -32.17412 38430 ft 482 kts 265°
2026-04-30 14:10 52.34995 -32.28314 38439 ft 482 kts 265°
2026-04-30 14:11 52.34164 -32.39217 38440 ft 483 kts 265°
2026-04-30 14:11 52.33328 -32.50057 38435 ft 483 kts 265°
2026-04-30 14:12 52.32475 -32.60970 38438 ft 483 kts 265°
2026-04-30 14:12 52.31613 -32.71873 38441 ft 483 kts 265°
2026-04-30 14:13 52.30741 -32.82780 38429 ft 483 kts 265°
2026-04-30 14:13 52.29863 -32.93620 38431 ft 483 kts 264°
2026-04-30 14:14 52.28969 -33.04539 38439 ft 483 kts 264°
2026-04-30 14:14 52.28587 -33.15329 38456 ft 466 kts 285°
2026-04-30 14:14 52.29079 -33.20478 38328 ft 462 kts 284°
2026-04-30 14:15 52.29168 -33.25720 38289 ft 460 kts 269°
2026-04-30 14:15 52.28559 -33.30819 38426 ft 453 kts 262°
2026-04-30 14:15 52.27710 -33.35744 38448 ft 448 kts 261°
2026-04-30 14:16 52.26149 -33.45484 38424 ft 438 kts 265°
2026-04-30 14:16 52.25023 -33.55146 38418 ft 427 kts 269°
2026-04-30 14:17 52.24562 -33.59972 38419 ft 422 kts 270°
2026-04-30 14:34 52.24495 -33.60697 38415 ft 421 kts 259°
2026-04-30 14:35 52.22027 -33.71089 38126 ft 432 kts 261°
2026-04-30 14:35 52.21651 -33.76041 37704 ft 445 kts 265°
2026-04-30 14:35 52.21335 -33.81085 37981 ft 447 kts 267°
2026-04-30 14:36 52.21149 -33.86137 38359 ft 447 kts 269°
2026-04-30 14:36 52.21053 -33.91188 38658 ft 448 kts 269°
2026-04-30 14:36 52.20890 -33.96289 38480 ft 460 kts 267°
2026-04-30 14:37 52.20149 -34.06902 38457 ft 479 kts 263°
2026-04-30 14:37 52.19113 -34.17805 38452 ft 492 kts 262°
2026-04-30 14:38 52.18045 -34.28688 38421 ft 485 kts 262°
2026-04-30 14:38 52.17008 -34.39490 38435 ft 480 kts 262°
2026-04-30 14:39 52.15988 -34.50237 38437 ft 479 kts 262°
2026-04-30 14:39 52.14965 -34.60965 38443 ft 479 kts 262°
2026-04-30 14:40 52.13411 -34.77031 38443 ft 481 kts 262°
2026-04-30 14:40 52.12354 -34.87802 38441 ft 482 kts 262°
2026-04-30 14:41 52.11286 -34.98593 38441 ft 483 kts 261°
2026-04-30 14:41 52.10204 -35.09405 38449 ft 484 kts 261°
2026-04-30 14:42 52.09117 -35.20175 38445 ft 485 kts 261°
2026-04-30 14:42 52.08012 -35.31013 38446 ft 485 kts 261°
2026-04-30 14:43 52.06899 -35.41836 38445 ft 485 kts 261°
2026-04-30 14:43 52.05780 -35.52604 38445 ft 485 kts 261°
2026-04-30 14:44 52.04648 -35.63403 38444 ft 484 kts 261°
2026-04-30 14:44 52.03508 -35.74186 38446 ft 484 kts 261°
2026-04-30 14:45 52.02361 -35.84928 38444 ft 484 kts 260°
2026-04-30 14:45 52.01201 -35.95699 38444 ft 483 kts 260°
2026-04-30 14:46 52.00039 -36.06388 38443 ft 483 kts 260°
2026-04-30 14:46 51.98861 -36.17127 38444 ft 483 kts 260°
2026-04-30 14:47 51.97672 -36.27879 38444 ft 484 kts 260°
2026-04-30 14:47 51.96474 -36.38619 38444 ft 484 kts 260°
2026-04-30 14:48 51.95264 -36.49365 38446 ft 484 kts 259°
2026-04-30 14:48 51.94051 -36.60048 38442 ft 484 kts 259°
2026-04-30 14:49 51.92822 -36.70788 38445 ft 485 kts 259°
2026-04-30 14:49 51.91580 -36.81543 38446 ft 485 kts 259°
2026-04-30 14:50 51.89708 -36.97583 38447 ft 485 kts 259°
2026-04-30 14:51 51.87805 -37.13690 38444 ft 485 kts 259°
2026-04-30 14:52 51.85890 -37.29706 38444 ft 484 kts 259°
2026-04-30 14:52 51.83945 -37.45771 38447 ft 484 kts 258°
2026-04-30 14:53 51.81988 -37.61741 38449 ft 484 kts 258°
2026-04-30 14:54 51.79336 -37.83087 38444 ft 484 kts 258°
2026-04-30 14:55 51.77327 -37.99032 38449 ft 484 kts 258°
2026-04-30 14:56 51.74615 -38.20281 38447 ft 484 kts 258°
2026-04-30 14:57 51.72549 -38.36249 38449 ft 484 kts 258°
2026-04-30 14:58 51.69763 -38.57501 38446 ft 484 kts 257°
2026-04-30 14:58 51.67647 -38.73431 38446 ft 485 kts 257°
2026-04-30 15:00 51.64076 -38.99926 38446 ft 485 kts 257°
2026-04-30 15:01 51.61166 -39.21168 38446 ft 485 kts 257°
2026-04-30 15:01 51.58967 -39.37019 38447 ft 485 kts 257°
2026-04-30 15:02 51.57483 -39.47620 38444 ft 485 kts 257°
2026-04-30 15:03 51.53738 -39.74055 38444 ft 485 kts 256°
2026-04-30 15:04 51.50003 -40.00406 38450 ft 485 kts 260°
2026-04-30 15:06 51.48417 -40.27325 38441 ft 486 kts 265°
2026-04-30 15:07 51.47168 -40.48929 38446 ft 486 kts 264°
2026-04-30 15:08 51.45850 -40.70509 38444 ft 486 kts 264°
2026-04-30 15:09 51.44156 -40.97388 38441 ft 485 kts 264°
2026-04-30 15:10 51.42759 -41.18836 38443 ft 485 kts 264°
2026-04-30 15:11 51.40588 -41.51035 38440 ft 485 kts 263°
2026-04-30 15:13 51.38710 -41.77854 38442 ft 484 kts 263°
2026-04-30 15:14 51.35986 -42.15265 38444 ft 484 kts 263°